Regional Weather Roundup
Issued by NWS

Home | Current Version | Previous Version | Graphics & Text | Print | Product List | Glossary On
Versions: 1 2 3 4 5 6 7 8 9 10 11 12 13 14 15 16 17 18 19 20 21 22 23 24 25 26 27 28 29 30 31 32 33 34 35 36 37 38 39 40 41 42 43 44 45 46 47 48 49 50
000
ASUS43 KFSD 272310
RWRSD

WEATHER ROUNDUP FOR SOUTH DAKOTA
NATIONAL WEATHER SERVICE SIOUX FALLS SD
600 PM CDT THU APR 27 2017

NOTE: "FAIR" INDICATES FEW OR NO CLOUDS BELOW 12,000 FEET WITH NO
SIGNIFICANT WEATHER AND/OR OBSTRUCTIONS TO VISIBILITY.


SDZ001>005-009-010-012>017-280000-
NORTHWEST AND NORTH CENTRAL SOUTH DAKOTA

CITY           SKY/WX    TMP DP  RH WIND       PRES   REMARKS
BUFFALO          N/A     49  26  41 E13G18    29.60R
FAITH            N/A     49  29  46 NE9       29.67R
MOBRIDGE       SUNNY     55  24  30 N10       29.66R
$$

SDZ012>016-024>037-041>051-057-063-072>074-280000-
SOUTHWEST AND SOUTH CENTRAL SOUTH DAKOTA

CITY           SKY/WX    TMP DP  RH WIND       PRES   REMARKS
RAPID CTY ARPT CLOUDY    47  33  58 E10       29.64R
PIERRE         SUNNY     52  30  43 E6        29.67R
CUSTER         CLOUDY    35  30  82 E9        29.60R WCI  28
ELLSWORTH AFB  CLOUDY    46  32  58 E9        29.64
PHILIP         MOSUNNY   49  33  54 E8        29.67R
PINE RIDGE     CLOUDY    48  37  65 SE13      29.59R
SPEARFISH      FAIR      41  34  75 E18       29.62R
WINNER         FAIR      55  33  43 E7        29.66S
$$

SDZ004>011-016>023-039-040-280000-
NORTHEAST SOUTH DAKOTA

CITY           SKY/WX    TMP DP  RH WIND       PRES   REMARKS
ABERDEEN       MOSUNNY   50  29  44 N10       29.70S
WATERTOWN      SUNNY     41  27  57 N17       29.69R
BROOKINGS      SUNNY     44  27  51 NW15G22   29.68R
SISSETON         N/A     42  31  64 NE14      29.70R
$$

SDZ017-020-022-023-036>040-048>070-280000-
SOUTHEAST SOUTH DAKOTA

CITY           SKY/WX    TMP DP  RH WIND       PRES   REMARKS
SIOUX FALLS    MOSUNNY   51  34  52 N12       29.68R
HURON          SUNNY     49  28  44 N9        29.70R
CHAMBERLAIN    SUNNY     55  34  45 CALM      29.68R
MITCHELL       SUNNY     52  31  44 NE8       29.70S
YANKTON        SUNNY     52  30  43 CALM      29.69R
$$

ABBREVIATIONS USED IN REMARKS
   TC - TEMPERATURE IN CELSIUS
  WCI - WIND CHILL INDEX
   HX - HEAT INDEX
  VSB - VISIBILITY





USA.gov is the U.S. government's official web portal to all federal, state and local government web resources and services.